| time (UTC) | temp C | wind direction | speed KPH | gust KPH | rain 1hr cm | rain 24hr cm | rain mn cm | humidity % | barometer mb |
| 20260507183905 | 16 | 138 | 3.2 | 4.8 | 0.00 | 0.23 | 0.03 | 77 | 1011.8 |
| 20260507183405 | 16 | 90 | 3.2 | 9.7 | 0.00 | 0.23 | 0.03 | 77 | 1011.7 |
| 20260507180905 | 16 | 87 | 4.8 | 4.8 | 0.00 | 0.23 | 0.03 | 75 | 1011.6 |
| 20260507180405 | 16 | 104 | 4.8 | 12.9 | 0.00 | 0.23 | 0.03 | 75 | 1011.6 |
| 20260507173404 | 16 | 81 | 4.8 | 12.9 | 0.00 | 0.23 | 0.03 | 73 | 1011.4 |
| 20260507170905 | 17 | 101 | 6.4 | 11.3 | 0.00 | 0.23 | 0.03 | 72 | 1011.3 |
| 20260507170404 | 17 | 90 | 8.0 | 16.1 | 0.00 | 0.23 | 0.03 | 71 | 1011.4 |
| 20260507163905 | 17 | 105 | 9.7 | 14.5 | 0.00 | 0.23 | 0.03 | 69 | 1011.5 |
| 20260507163403 | 17 | 110 | 4.8 | 16.1 | 0.00 | 0.23 | 0.03 | 69 | 1011.6 |
| 20260507160904 | 17 | 82 | 11.3 | 19.3 | 0.00 | 0.23 | 0.03 | 66 | 1011.5 |
| 20260507160404 | 17 | 96 | 8.0 | 20.9 | 0.00 | 0.23 | 0.03 | 66 | 1011.5 |
| 20260507153904 | 18 | 123 | 12.9 | 19.3 | 0.00 | 0.23 | 0.03 | 61 | 1011.3 |
| 20260507153404 | 18 | 92 | 11.3 | 20.9 | 0.00 | 0.23 | 0.03 | 59 | 1011.4 |
| 20260507150905 | 19 | 74 | 11.3 | 19.3 | 0.00 | 0.23 | 0.03 | 56 | 1011.4 |
| 20260507150404 | 19 | 87 | 8.0 | 19.3 | 0.00 | 0.23 | 0.03 | 54 | 1011.3 |
| 20260507143905 | 19 | 89 | 9.7 | 19.3 | 0.00 | 0.23 | 0.03 | 54 | 1011.3 |
| 20260507143404 | 19 | 82 | 11.3 | 19.3 | 0.00 | 0.23 | 0.03 | 54 | 1011.4 |
| 20260507140904 | 18 | 123 | 8.0 | 16.1 | 0.00 | 0.23 | 0.03 | 52 | 1011.8 |
| 20260507140404 | 18 | 90 | 11.3 | 24.1 | 0.00 | 0.23 | 0.03 | 53 | 1011.8 |
| 20260507133404 | 18 | 115 | 16.1 | 24.1 | 0.00 | 0.23 | 0.03 | 54 | 1012.1 |
| 20260507130905 | 18 | 99 | 14.5 | 24.1 | 0.00 | 0.23 | 0.03 | 52 | 1012.4 |
| 20260507130404 | 19 | 94 | 20.9 | 27.4 | 0.00 | 0.23 | 0.03 | 51 | 1012.5 |
| 20260507123904 | 18 | 95 | 16.1 | 25.7 | 0.00 | 0.23 | 0.03 | 53 | 1012.6 |
| 20260507123404 | 18 | 118 | 19.3 | 32.2 | 0.00 | 0.23 | 0.03 | 53 | 1012.7 |
| 20260507120904 | 18 | 101 | 16.1 | 25.7 | 0.00 | 0.23 | 0.03 | 53 | 1012.6 |
| 20260507120405 | 18 | 117 | 17.7 | 25.7 | 0.00 | 0.23 | 0.03 | 52 | 1012.6 |
| 20260507113906 | 19 | 107 | 14.5 | 19.3 | 0.00 | 0.23 | 0.03 | 55 | 1012.5 |
| 20260507113404 | 19 | 94 | 11.3 | 19.3 | 0.00 | 0.23 | 0.03 | 55 | 1012.6 |
| 20260507110905 | 18 | 86 | 9.7 | 19.3 | 0.00 | 0.23 | 0.03 | 57 | 1012.9 |
| 20260507110405 | 18 | 121 | 9.7 | 19.3 | 0.00 | 0.23 | 0.03 | 57 | 1012.9 |
| 20260507103405 | 20 | 120 | 11.3 | 16.1 | 0.00 | 0.23 | 0.03 | 52 | 1013.0 |
| 20260507100405 | 18 | 134 | 4.8 | 16.1 | 0.00 | 0.23 | 0.03 | 60 | 1013.2 |
| 20260507093904 | 19 | 118 | 1.6 | 4.8 | 0.00 | 0.23 | 0.03 | 64 | 1013.3 |
| 20260507093404 | 19 | 123 | 1.6 | 8.0 | 0.00 | 0.23 | 0.03 | 65 | 1013.3 |
| 20260507090905 | 19 | 155 | 3.2 | 9.7 | 0.00 | 0.23 | 0.03 | 65 | 1013.2 |
| 20260507090404 | 19 | 214 | 1.6 | 4.8 | 0.00 | 0.23 | 0.03 | 66 | 1013.2 |
| 20260507083405 | 17 | 69 | 1.6 | 11.3 | 0.00 | 0.23 | 0.03 | 71 | 1013.1 |
| 20260507080905 | 16 | 86 | 1.6 | 9.7 | 0.00 | 0.23 | 0.03 | 81 | 1013.4 |
| 20260507080405 | 16 | 108 | 1.6 | 9.7 | 0.00 | 0.23 | 0.03 | 82 | 1013.4 |
| 20260507073904 | 15 | 62 | 1.6 | 4.8 | 0.00 | 0.23 | 0.03 | 87 | 1013.6 |
| 20260507073405 | 14 | 260 | 1.6 | 4.8 | 0.00 | 0.23 | 0.03 | 87 | 1013.6 |
| 20260507070905 | 13 | 296 | 0.0 | 4.8 | 0.00 | 0.23 | 0.03 | 87 | 1013.4 |
| 20260507070403 | 13 | 311 | 1.6 | 3.2 | 0.00 | 0.23 | 0.03 | 87 | 1013.4 |
| 20260507063905 | 12 | 271 | 0.0 | 3.2 | 0.00 | 0.23 | 0.03 | 87 | 1013.2 |
| 20260507063403 | 12 | 201 | 0.0 | 0.0 | 0.00 | 0.23 | 0.03 | 87 | 1013.3 |
| 20260507060904 | 11 | 210 | 0.0 | 1.6 | 0.00 | 0.23 | 0.03 | 87 | 1013.2 |
| 20260507060404 | 10 | 157 | 0.0 | 1.6 | 0.00 | 0.23 | 0.03 | 87 | 1013.3 |
| 20260507053903 | 9 | 134 | 0.0 | 1.6 | 0.00 | 0.23 | 0.03 | 88 | 1013.0 |
| 20260507053405 | 8 | 109 | 0.0 | 3.2 | 0.00 | 0.23 | 0.03 | 87 | 1012.9 |
| 20260507050905 | 8 | 197 | 0.0 | 0.0 | 0.00 | 0.23 | 0.03 | 88 | 1012.9 |
| 20260507043904 | 8 | 0 | 0.0 | 1.6 | 0.00 | 0.23 | 0.03 | 87 | 1012.6 |
| 20260507043405 | 8 | 0 | 0.0 | 1.6 | 0.00 | 0.23 | 0.03 | 87 | 1012.6 |
| 20260507040905 | 9 | 7 | 0.0 | 0.0 | 0.00 | 0.23 | 0.03 | 87 | 1012.6 |
| 20260507040404 | 9 | 146 | 0.0 | 3.2 | 0.00 | 0.23 | 0.03 | 87 | 1012.7 |
| 20260507033905 | 9 | 146 | 3.2 | 4.8 | 0.00 | 0.23 | 0.03 | 87 | 1012.7 |
| 20260507033404 | 9 | 67 | 0.0 | 4.8 | 0.00 | 0.23 | 0.03 | 87 | 1012.7 |
| 20260507030904 | 10 | 0 | 3.2 | 4.8 | 0.00 | 0.23 | 0.03 | 87 | 1012.6 |
| 20260507030404 | 10 | 0 | 0.0 | 0.0 | 0.00 | 0.23 | 0.03 | 87 | 1012.6 |
| 20260507023904 | 10 | 0 | 0.0 | 0.0 | 0.03 | 0.23 | 0.03 | 87 | 1012.6 |
| 20260507023404 | 10 | 172 | 0.0 | 4.8 | 0.03 | 0.23 | 0.03 | 87 | 1012.6 |
| 20260507020904 | 11 | 248 | 0.0 | 1.6 | 0.03 | 0.23 | 0.03 | 87 | 1012.6 |
| 20260507013904 | 11 | 238 | 3.2 | 4.8 | 0.00 | 0.20 | 0.00 | 87 | 1012.8 |
| 20260507013404 | 11 | 238 | 0.0 | 4.8 | 0.00 | 0.20 | 0.00 | 87 | 1012.8 |
| 20260507010905 | 11 | 264 | 0.0 | 1.6 | 0.00 | 0.20 | 0.00 | 87 | 1012.9 |
| 20260507010405 | 11 | 264 | 0.0 | 4.8 | 0.00 | 0.20 | 0.00 | 87 | 1013.0 |
| 20260507003905 | 11 | 165 | 3.2 | 4.8 | 0.00 | 0.20 | 0.00 | 87 | 1013.3 |
| 20260507003404 | 12 | 166 | 3.2 | 4.8 | 0.00 | 0.20 | 0.00 | 87 | 1013.2 |
| 20260507000903 | 12 | 262 | 0.0 | 3.2 | 0.00 | 0.23 | 0.00 | 87 | 1013.4 |
| 20260507000405 | 12 | 273 | 0.0 | 4.8 | 0.00 | 0.23 | 0.00 | 87 | 1013.4 |
| 20260506233903 | 12 | 238 | 1.6 | 4.8 | 0.00 | 0.23 | 0.00 | 87 | 1013.4 |
| 20260506233404 | 12 | 283 | 4.8 | 8.0 | 0.00 | 0.23 | 0.00 | 87 | 1013.4 |
| 20260506230904 | 13 | 109 | 0.0 | 0.0 | 0.00 | 0.23 | 0.00 | 87 | 1013.5 |
| 20260506223404 | 13 | 325 | 1.6 | 8.0 | 0.00 | 0.23 | 0.00 | 86 | 1013.5 |
| 20260506213905 | 13 | 284 | 0.0 | 3.2 | 0.00 | 0.23 | 0.23 | 86 | 1013.4 |
| 20260506213405 | 13 | 284 | 1.6 | 4.8 | 0.00 | 0.23 | 0.23 | 86 | 1013.5 |
| 20260506210904 | 14 | 252 | 0.0 | 0.0 | 0.00 | 0.23 | 0.23 | 86 | 1013.3 |
| 20260506210405 | 14 | 252 | 0.0 | 0.0 | 0.00 | 0.23 | 0.23 | 86 | 1013.4 |
| 20260506203904 | 14 | 265 | 0.0 | 1.6 | 0.00 | 0.23 | 0.23 | 86 | 1013.2 |
| 20260506203404 | 14 | 337 | 1.6 | 4.8 | 0.00 | 0.23 | 0.23 | 86 | 1013.1 |
| 20260506200905 | 14 | 283 | 1.6 | 4.8 | 0.18 | 0.23 | 0.23 | 85 | 1012.7 |
| 20260506200404 | 14 | 324 | 1.6 | 4.8 | 0.20 | 0.23 | 0.23 | 85 | 1012.7 |
| 20260506193904 | 15 | 245 | 1.6 | 4.8 | 0.20 | 0.23 | 0.23 | 84 | 1012.3 |
| 20260506193405 | 15 | 275 | 3.2 | 4.8 | 0.20 | 0.23 | 0.23 | 83 | 1012.2 |
| 20260506190905 | 15 | 308 | 3.2 | 4.8 | 0.03 | 0.05 | 0.05 | 81 | 1011.9 |
| 20260506190403 | 15 | 295 | 1.6 | 8.0 | 0.00 | 0.03 | 0.03 | 81 | 1011.8 |